{"data":{"norad_id":52877,"epoch":"2026-05-25T02:25:26.097600Z","epoch_age_seconds":65581,"freshness":"FRESH","line1":"1 52877U 22062AZ  26145.10099650  .00002433  00000+0  17092-3 0  9992","line2":"2 52877  53.2139  31.1039 0001750  88.2562 271.8630 15.08831567217602","mean_motion":15.08831567,"eccentricity":0.000175,"inclination_deg":53.2139,"raan_deg":31.1039,"arg_perigee_deg":88.2562,"mean_anomaly_deg":271.863,"bstar":0.00017092,"rev_number":21760,"period_min":95.438088087138,"perigee_km":538.55853181254,"apogee_km":540.97979897043,"semimajor_km":6917.9061653915,"source":"CELESTRAK","updated_at":"2026-05-25T13:38:17.270587Z"}}